Regional Weather Roundup
Issued by NWS

Home | Current Version | Previous Version | Text Only | Print | Product List | Glossary Off
Versions: 1 2 3 4 5 6 7 8 9 10 11 12 13 14 15 16 17 18 19 20 21 22 23 24 25 26 27 28 29 30 31 32 33 34 35 36 37 38 39 40 41 42 43 44 45 46 47 48 49 50

000
ASUS44 KMEG 021000
RWRTN
TENNESSEE HOURLY STATE WEATHER ROUNDUP
NATIONAL WEATHER SERVICE MEMPHIS TN
500 AM CDT SUN AUG 02 2015

TNZ002-004-019-021-049-052-054-088>092-021100-
WEST TENNESSEE

CITY           SKY/WX    TMP DP  RH WIND       PRES   REMARKS
MEMPHIS INTL   CLEAR     78  67  68 E3        29.95F
NWS MEMPHIS      N/A     70 N/A N/A MISG        N/A
JACKSON        CLEAR     70  66  87 CALM      29.96F
DYERSBURG        N/A    N/A N/A N/A MISG        N/A
PARIS          CLEAR     66  63  88 CALM      29.98S
LEXINGTON      CLEAR     66  66 100 CALM      29.96S
$$

TNZ008-025-027-028-033-062-065-066-021100-
NORTH MIDDLE TENNESSEE

CITY           SKY/WX    TMP DP  RH WIND       PRES   REMARKS
NASHVILLE      PTCLDY    64  63  96 CALM      29.98S
CLARKSVILLE    CLEAR     62  61  96 CALM      29.98S
CROSSVILLE     PTCLDY    61  57  87 CALM      30.03F
$$

TNZ061-075-076-078-094-096-097-021100-
SOUTH MIDDLE TENNESSEE

CITY           SKY/WX    TMP DP  RH WIND       PRES   REMARKS
FAYETTEVILLE   CLEAR     66  63  88 NE6       29.98S
TULLAHOMA      CLEAR     63  59  88 CALM      30.00R
WINCHESTER     MOCLDY    61  61 100 CALM      29.99R VSB 1
MCMINNVILLE    CLEAR     63  63 100 CALM      29.99S
COLUMBIA       MOCLDY    66  66 100 CALM      29.97S
SHELBYVILLE    CLEAR     63  63 100 CALM      29.99R
$$

TNZ017-018-042-046-047-021100-
NORTHEAST TENNESSEE

CITY           SKY/WX    TMP DP  RH WIND       PRES   REMARKS
TRI CITIES     PTCLDY    59  58  96 CALM      30.03R
ELIZABETHTON   SUNNY     57  55  94 CALM      30.04R
$$

TNZ012-013-036-069-073-074-021100-
CENTRAL EAST TENNESSEE

CITY           SKY/WX    TMP DP  RH WIND       PRES   REMARKS
KNOXVILLE      PTCLDY    66  63  90 E3        29.98R
OAK RIDGE      CLEAR     64  61  90 CALM      30.00S
GATLINBURG     SUNNY     61  59  94 CALM      29.99R
$$

TNZ083-085-099-021100-
SOUTHEAST TENNESSEE

CITY           SKY/WX    TMP DP  RH WIND       PRES   REMARKS
CHATTANOOGA    PTCLDY    68  64  87 CALM      29.97R
$$

SKY/WX REPORTED AS FAIR MEANS FEW OR NO CLOUDS BELOW
12 THOUSAND FEET.



USA.gov is the U.S. government's official web portal to all federal, state and local government web resources and services.